Huntsville, AL

7:58 AM CST on January 24, 2017 (GMT -0600)
Huntsville International

Weather History for KHSV - May, 2012

Change the Weather History Date:

Wednesday, May 23, 2012

  Actual Average Record
Temperature  
Mean Temperature 70 °F 72 °F  
Max Temperature 84 °F 83 °F 95 °F (2010)
Min Temperature 55 °F 61 °F 45 °F (1954)
Degree Days  
Heating Degree Days 0 0  
Month to date heating degree days 0 25  
Since 1 July heating degree days 2339 2999  
Cooling Degree Days 5 8  
Month to date cooling degree days 164 122  
Year to date cooling degree days 339 194  
Growing Degree Days 18 (Base 50)    
Moisture  
Dew Point 55 °F    
Average Humidity 64    
Maximum Humidity 93    
Minimum Humidity 34    
Precipitation  
Precipitation 0.00 in 0.15 in 1.85 in (1930)
Month to date precipitation 2.78 3.89  
Year to date precipitation 20.63 23.15  
Snow  
Snow 0.00 in - - ()
Month to date snowfall 0.0  
Since 1 July snowfall T  
Snow Depth 0.00 in    
Sea Level Pressure  
Sea Level Pressure 29.87 in    
Wind  
Wind Speed 2 mph (SSE)    
Max Wind Speed 12 mph    
Max Gust Speed 15 mph    
Visibility 9 miles    
Events Fog    
T = Trace of Precipitation, MM = Missing Value Source: NWS Daily Summary

Daily Weather History Graph

Daily Weather History Graph

Search for Another Location

Airport or City:

Trip Planner

Search our weather history database for the weather conditions in past years. The results will help you decide how hot, cold, wet, or windy it might be!

Date:

Astronomy

May. 23, 2012 Rise Set
Actual Time 5:38 AM CDT 7:49 PM CDT
Civil Twilight 5:10 AM CDT 8:17 PM CDT
Nautical Twilight 4:35 AM CDT 8:52 PM CDT
Astronomical Twilight 3:57 AM CDT 9:30 PM CDT
Moon 7:41 AM CDT (5/23) 10:10 PM CDT (5/23)
Length of Visible Light 15h 07m
Length of Day
14h 10m
Waxing Crescent, 7% of the Moon is Illuminated
May 23
Waxing Crescent
May 28
First Quarter
Jun 4
Full
Jun 11
Last Quarter
Jun 19
New

Hourly Weather History & Observations

Time (CDT) Temp. Heat Index Dew Point Humidity Pressure Visibility Wind Dir Wind Speed Gust Speed Precip Events Conditions
12:53 AM 61.0 °F - 55.9 °F 83% 29.90 in 10.0 mi Calm Calm - N/A   Clear
1:53 AM 60.1 °F - 55.9 °F 86% 29.88 in 10.0 mi Calm Calm - N/A   Clear
2:53 AM 59.0 °F - 55.4 °F 88% 29.89 in 10.0 mi Calm Calm - N/A   Clear
3:53 AM 57.0 °F - 54.0 °F 89% 29.87 in 6.0 mi Calm Calm - N/A   Clear
4:53 AM 55.9 °F - 53.1 °F 90% 29.87 in 6.0 mi Calm Calm - N/A   Partly Cloudy
5:53 AM 55.9 °F - 53.1 °F 90% 29.88 in 8.0 mi Calm Calm - N/A Fog Shallow Fog
6:53 AM 57.9 °F - 55.9 °F 93% 29.89 in 7.0 mi Calm Calm - N/A Fog Patches of Fog
7:53 AM 63.0 °F - 57.9 °F 84% 29.90 in 8.0 mi Calm Calm - N/A   Partly Cloudy
8:53 AM 69.1 °F - 59.0 °F 70% 29.91 in 10.0 mi Calm Calm - N/A   Partly Cloudy
9:53 AM 73.9 °F - 57.9 °F 57% 29.91 in 10.0 mi South 4.6 mph - N/A   Partly Cloudy
10:53 AM 77.0 °F - 54.0 °F 45% 29.91 in 10.0 mi Variable 5.8 mph - N/A   Partly Cloudy
11:53 AM 77.0 °F - 54.0 °F 45% 29.91 in 10.0 mi Calm Calm - N/A   Scattered Clouds
12:53 PM 80.1 °F - 52.0 °F 38% 29.89 in 10.0 mi Calm Calm - N/A   Scattered Clouds
1:53 PM 81.0 °F 80.7 °F 55.0 °F 41% 29.88 in 10.0 mi Calm Calm - N/A   Scattered Clouds
2:53 PM 81.0 °F - 52.0 °F 36% 29.85 in 10.0 mi Variable 3.5 mph - N/A   Scattered Clouds
3:53 PM 82.0 °F - 51.1 °F 34% 29.84 in 10.0 mi East 3.5 mph - N/A   Scattered Clouds
4:53 PM 82.0 °F - 51.1 °F 34% 29.83 in 10.0 mi SSW 4.6 mph - N/A   Scattered Clouds
5:53 PM 82.0 °F - 51.1 °F 34% 29.83 in 10.0 mi SSE 6.9 mph - N/A   Partly Cloudy
6:53 PM 80.1 °F - 50.0 °F 35% 29.83 in 10.0 mi South 3.5 mph - N/A   Clear
7:53 PM 75.9 °F - 55.0 °F 48% 29.84 in 10.0 mi South 4.6 mph - N/A   Clear
8:53 PM 72.0 °F - 55.9 °F 57% 29.85 in 10.0 mi South 4.6 mph - N/A   Clear
9:53 PM 69.1 °F - 57.0 °F 65% 29.86 in 10.0 mi SE 3.5 mph - N/A   Clear
10:53 PM 66.0 °F - 57.9 °F 75% 29.86 in 10.0 mi ESE 4.6 mph - N/A   Clear
11:53 PM 64.0 °F - 57.0 °F 78% 29.86 in 10.0 mi ESE 4.6 mph - N/A   Clear